Вернуться в каталог

HETE 2

LostНаукаVLEO
NORAD 26561·PAYLOAD·🇺🇸 United States

Запущен Oct 9, 2000 с Ronald Reagan Space and Missile Test Range

Loading…

Ближайшие Пролёты (ближайшие 24 часа)

TLE

УстаревшееSource: Space-Track

Эпоха: Jan 5, 2024, 12:11 UTC

1 26561U 00061A   24005.50772891  .00009088  00000-0  38599-3 0  9999
2 26561   1.9416 347.7946 0020616  67.5655 292.6569 15.17702077276946

Отслеживайте HETE 2 в реальном времени с AllMySat

Download on the App Store